COSMOS 2151 (21422 NORAD) Tracking and Keplerian Element Data

This shows tracking and keplerian element data for the satellite.

Feedback or suggestion? Click here.




ElementValue
Catalog21422
NameCOSMOS 2151
Epoch Orbit82464
Epoch Day35.19973894
Epoch Year2025
RAAN107.3885
Inclination82.497
Eccentricity0.0011614
Argument of Perigee330.9445
Mean Anonmoly29.113
Mean Motion14.97982523
Decay Rate3.73E-05
L11 21422U 91042A 25035.19973894 .00003730 00000+0 31360-3 0 9990
L22 21422 82.4970 107.3885 0011614 330.9445 29.1130 14.97982523824646



Live tracking and technical data element details for COSMOS 2151 (NORAD 21422). COSMOS 2151 can be tracked NOW for your location showing map with azimuth and elevation plus other details from your city location.







IsCatalogInMostPopularTable: catalog: 21422, numindb: 497
Update: records affected: 1



GetName: 21422 COSMOS 2151

Hit Count: updated at: Sat, 17 May 2025 09:24:13 GMT